Tracking 35334 objects as of 12-Sep-2026
HD Live streaming from Space Station
objects crossing your sky now

ONEWEB-0299

Track ONEWEB-0299 now!
10-day predictions
ONEWEB-0299 is classified as:


NORAD ID: 49088
Int'l Code: 2021-075P
Launch date: August 21, 2021
Source: United Kingdom (UK)
Launch site: TYURATAM MISSILE AND SPACE COMPLEX (TTMTR)
Your satellite tracking list
Your tracking list is empty




NASA's NSSDC Master Catalog

Two Line Element Set (TLE):
1 49088U 21075P   26255.21650508  .00000031  00000-0  47322-4 0  9997
2 49088  87.9212 348.5708 0001862 106.4336 253.7001 13.17649559245060
Source of the keplerian elements: AFSPC